,,,PA_Meas_PMT16A,,PR_Meas_QMR101_102,,RH_Meas_QMH101,,SR_Meas_QMS101,,TA_Meas_QMH101,,GenWind,,GenWind,
date,time,status,PA,status,PR,status,RH,status,SR,status,TA,status,DirAvg,status,SpdAvg,
2011-07-12, 00:00:05,VALID,1005.05,VALID,0,INVALID,163.693,VALID,0,VALID,24.4998,VALID,359,VALID,0,
2011-07-12, 00:01:05,VALID,1005.04,VALID,0,INVALID,163.731,VALID,0,VALID,24.5017,VALID,359,VALID,0,
2011-07-12, 00:02:05,VALID,1005.06,VALID,0,INVALID,163.723,VALID,0,VALID,24.5193,VALID,359,VALID,0,
2011-07-12, 00:03:05,VALID,1005.01,VALID,0,INVALID,163.716,VALID,0,VALID,24.5601,VALID,359,VALID,0,
2011-07-12, 00:04:05,VALID,1005.03,VALID,0,INVALID,163.723,VALID,0,VALID,24.5796,VALID,359,VALID,0,
2011-07-12, 00:05:05,VALID,1005.06,VALID,0,INVALID,163.746,VALID,0,VALID,24.5388,VALID,359,VALID,0,
2011-07-12, 00:06:05,VALID,1005.05,VALID,0,INVALID,163.739,VALID,0,VALID,24.4998,VALID,359,VALID,0,
2011-07-12, 00:07:05,VALID,1005.04,VALID,0,INVALID,163.723,VALID,0,VALID,24.4804,VALID,359,VALID,0,
2011-07-12, 00:08:05,VALID,1005.05,VALID,0,INVALID,163.731,VALID,0,VALID,24.4628,VALID,359,VALID,0,
2011-07-12, 00:09:05,VALID,1005.06,VALID,0,INVALID,163.731,VALID,0,VALID,24.422,VALID,359,VALID,0,
2011-07-12, 00:10:05,VALID,1005.04,VALID,0,INVALID,163.739,VALID,0,VALID,24.4043,VALID,359,VALID,0,
2011-07-12, 00:11:05,VALID,1005.04,VALID,0,INVALID,163.723,VALID,0,VALID,24.3441,VALID,359,VALID,0,
2011-07-12, 00:12:05,VALID,1005.05,VALID,0,INVALID,163.754,VALID,0,VALID,24.3459,VALID,349,VALID,0,
2011-07-12, 00:13:05,VALID,1005.03,VALID,0,INVALID,163.739,VALID,0,VALID,24.3654,VALID,352,VALID,0,
2011-07-12, 00:14:05,VALID,1005.03,VALID,0,INVALID,163.739,VALID,0,VALID,24.3441,VALID,54,VALID,0,
2011-07-12, 00:15:05,VALID,1005.02,VALID,0,INVALID,163.769,VALID,0,VALID,24.3441,VALID,54,VALID,0,
2011-07-12, 00:16:05,VALID,1005.04,VALID,0,INVALID,163.723,VALID,0,VALID,24.3459,VALID,54,VALID,0,
2011-07-12, 00:17:05,VALID,1005,VALID,0,INVALID,163.731,VALID,0,VALID,24.3052,VALID,54,VALID,0,
2011-07-12, 00:18:05,VALID,1005.02,VALID,0,INVALID,163.754,VALID,0,VALID,24.2857,VALID,6,VALID,0,
2011-07-12, 00:19:05,VALID,1004.97,VALID,0,INVALID,163.731,VALID,0,VALID,24.2857,VALID,339,VALID,0,
2011-07-12, 00:20:05,VALID,1004.99,VALID,0,INVALID,163.723,VALID,0,VALID,24.3246,VALID,350,VALID,0,
2011-07-12, 00:21:05,VALID,1004.98,VALID,0,INVALID,163.746,VALID,0,VALID,24.383,VALID,8,VALID,0,
2011-07-12, 00:22:05,VALID,1004.98,VALID,0,INVALID,163.754,VALID,0,VALID,24.4238,VALID,356,VALID,0,
2011-07-12, 00:23:05,VALID,1004.97,VALID,0,INVALID,163.746,VALID,0,VALID,24.4238,VALID,356,VALID,0,
2011-07-12, 00:24:05,VALID,1004.96,VALID,0,INVALID,163.746,VALID,0,VALID,24.4238,VALID,358,VALID,0,
2011-07-12, 00:25:05,VALID,1004.97,VALID,0,INVALID,163.723,VALID,0,VALID,24.6185,VALID,17,VALID,0,
2011-07-12, 00:26:05,VALID,1004.99,VALID,0,INVALID,163.716,VALID,0,VALID,24.7548,VALID,33,VALID,0,
2011-07-12, 00:27:05,VALID,1004.97,VALID,0,INVALID,163.701,VALID,0,VALID,24.714,VALID,33,VALID,0,
2011-07-12, 00:28:05,VALID,1005,VALID,0,INVALID,163.701,VALID,0,VALID,24.7335,VALID,16,VALID,0,
2011-07-12, 00:29:05,VALID,1004.99,VALID,0,INVALID,163.716,VALID,0,VALID,24.714,VALID,16,VALID,0,
2011-07-12, 00:30:05,VALID,1005.02,VALID,0,INVALID,163.731,VALID,0,VALID,24.6556,VALID,16,VALID,0,
2011-07-12, 00:31:05,VALID,1005,VALID,0,INVALID,163.716,VALID,0,VALID,24.6166,VALID,16,VALID,0,
2011-07-12, 00:32:05,VALID,1004.99,VALID,0,INVALID,163.731,VALID,0,VALID,24.599,VALID,16,VALID,0,
2011-07-12, 00:33:05,VALID,1005,VALID,0,INVALID,163.716,VALID,0,VALID,24.5582,VALID,16,VALID,0,
2011-07-12, 00:34:05,VALID,1005.01,VALID,0,INVALID,163.731,VALID,0,VALID,24.5601,VALID,22,VALID,0,
2011-07-12, 00:35:05,VALID,1005.03,VALID,0,INVALID,163.716,VALID,0,VALID,24.5212,VALID,22,VALID,0,
2011-07-12, 00:36:05,VALID,1005.01,VALID,0,INVALID,163.716,VALID,0,VALID,24.4238,VALID,22,VALID,0,
2011-07-12, 00:37:05,VALID,1005,VALID,0,INVALID,163.731,VALID,0,VALID,24.3422,VALID,22,VALID,0,
2011-07-12, 00:38:05,VALID,1005,VALID,0,INVALID,163.716,VALID,0,VALID,24.3441,VALID,16,VALID,0,
2011-07-12, 00:39:05,VALID,1005.02,VALID,0,INVALID,163.739,VALID,0,VALID,24.4238,VALID,85,VALID,0,
2011-07-12, 00:40:05,VALID,1005.01,VALID,0,INVALID,163.739,VALID,0,VALID,24.4609,VALID,52,VALID,0,
2011-07-12, 00:41:05,VALID,1005.02,VALID,0,INVALID,163.731,VALID,0,VALID,24.4804,VALID,42,VALID,0,
2011-07-12, 00:42:05,VALID,1005.03,VALID,0,INVALID,163.754,VALID,0,VALID,24.4998,VALID,28,VALID,0,
2011-07-12, 00:43:05,VALID,1004.98,VALID,0,INVALID,163.739,VALID,0,VALID,24.4822,VALID,7,VALID,0,
2011-07-12, 00:44:05,VALID,1004.96,VALID,0,INVALID,163.762,VALID,0,VALID,24.4609,VALID,17,VALID,0,
2011-07-12, 00:45:05,VALID,1004.91,VALID,0,INVALID,163.716,VALID,0,VALID,24.4785,VALID,17,VALID,0,
2011-07-12, 00:46:05,VALID,1004.9,VALID,0,INVALID,163.731,VALID,0.100563,VALID,24.5369,VALID,346,VALID,0,
2011-07-12, 00:47:05,VALID,1004.86,VALID,0,INVALID,163.716,VALID,0.100563,VALID,24.5758,VALID,3,VALID,0,
2011-07-12, 00:48:05,VALID,1004.83,VALID,0,INVALID,163.716,VALID,0.100563,VALID,24.6945,VALID,60,VALID,0,
2011-07-12, 00:49:05,VALID,1004.81,VALID,0,INVALID,163.708,VALID,0.100563,VALID,24.7705,VALID,17,VALID,0,
2011-07-12, 00:50:05,VALID,1004.8,VALID,0,INVALID,163.731,VALID,0,VALID,24.8308,VALID,24,VALID,0,
2011-07-12, 00:51:05,VALID,1004.8,VALID,0,INVALID,163.746,VALID,0,VALID,24.8503,VALID,3,VALID,0,
2011-07-12, 00:52:05,VALID,1004.78,VALID,0,INVALID,163.693,VALID,0.100563,VALID,24.8873,VALID,14,VALID,0,
2011-07-12, 00:53:05,VALID,1004.77,VALID,0,INVALID,163.67,VALID,0.100563,VALID,24.9847,VALID,347,VALID,0,
2011-07-12, 00:54:05,VALID,1004.74,VALID,0,INVALID,163.693,VALID,0,VALID,25.0255,VALID,356,VALID,0,
2011-07-12, 00:55:05,VALID,1004.73,VALID,0,INVALID,163.723,VALID,0.100563,VALID,24.9847,VALID,12,VALID,0,
2011-07-12, 00:56:05,VALID,1004.72,VALID,0,INVALID,163.701,VALID,0.100563,VALID,25.0079,VALID,12,VALID,0,
2011-07-12, 00:57:05,VALID,1004.71,VALID,0,INVALID,163.693,VALID,0,VALID,25.006,VALID,74,VALID,0,
2011-07-12, 00:58:05,VALID,1004.72,VALID,0,INVALID,163.701,VALID,0.100563,VALID,24.9847,VALID,22,VALID,0,
2011-07-12, 00:59:05,VALID,1004.73,VALID,0,INVALID,163.708,VALID,0.100563,VALID,25.0431,VALID,46,VALID,0,
2011-07-12, 01:00:04,VALID,1004.72,VALID,0,INVALID,163.693,VALID,0.100563,VALID,25.0217,VALID,19,VALID,0,
2011-07-12, 01:01:04,VALID,1004.7,VALID,0,INVALID,163.67,VALID,0.100563,VALID,25.121,VALID,43,VALID,0,
2011-07-12, 01:02:04,VALID,1004.7,VALID,0,INVALID,163.662,VALID,0.100563,VALID,25.1404,VALID,12,VALID,0,
2011-07-12, 01:03:04,VALID,1004.71,VALID,0,INVALID,163.693,VALID,0.100563,VALID,25.121,VALID,12,VALID,0,
2011-07-12, 01:04:04,VALID,1004.69,VALID,0,INVALID,163.701,VALID,0.100563,VALID,25.121,VALID,42,VALID,0,
2011-07-12, 01:05:04,VALID,1004.67,VALID,0,INVALID,163.678,VALID,0.100563,VALID,25.121,VALID,48,VALID,0,
2011-07-12, 01:06:04,VALID,1004.67,VALID,0,INVALID,163.693,VALID,0.100563,VALID,25.082,VALID,2,VALID,0,
2011-07-12, 01:07:04,VALID,1004.66,VALID,0,INVALID,163.678,VALID,0,VALID,25.1229,VALID,4,VALID,0,
2011-07-12, 01:08:04,VALID,1004.62,VALID,0,INVALID,163.693,VALID,0.100563,VALID,25.1229,VALID,8,VALID,0,
2011-07-12, 01:09:04,VALID,1004.6,VALID,0,INVALID,163.685,VALID,0.100563,VALID,25.1423,VALID,21,VALID,0,
2011-07-12, 01:10:04,VALID,1004.59,VALID,0,INVALID,163.701,VALID,0.100563,VALID,25.2202,VALID,32,VALID,0,
2011-07-12, 01:11:04,VALID,1004.6,VALID,0,INVALID,163.678,VALID,0.100563,VALID,25.2572,VALID,15,VALID,0,
2011-07-12, 01:12:04,VALID,1004.6,VALID,0,INVALID,163.678,VALID,0.100563,VALID,25.2786,VALID,66,VALID,0,
2011-07-12, 01:13:04,VALID,1004.6,VALID,0,INVALID,163.67,VALID,0,VALID,25.2183,VALID,62,VALID,0,
2011-07-12, 01:14:04,VALID,1004.58,VALID,0,INVALID,163.67,VALID,0.100563,VALID,25.2183,VALID,31,VALID,0,
2011-07-12, 01:15:04,VALID,1004.59,VALID,0,INVALID,163.662,VALID,0.100563,VALID,25.2397,VALID,31,VALID,0,
2011-07-12, 01:16:04,VALID,1004.57,VALID,0,INVALID,163.67,VALID,0,VALID,25.2007,VALID,55,VALID,0,
2011-07-12, 01:17:04,VALID,1004.56,VALID,0,INVALID,163.701,VALID,0,VALID,25.2007,VALID,1,VALID,0,
2011-07-12, 01:18:04,VALID,1004.58,VALID,0,INVALID,163.685,VALID,0.100563,VALID,25.2183,VALID,88,VALID,0,
2011-07-12, 01:19:04,VALID,1004.6,VALID,0,INVALID,163.678,VALID,0,VALID,25.2592,VALID,63,VALID,0,
2011-07-12, 01:20:04,VALID,1004.58,VALID,0,INVALID,163.685,VALID,0,VALID,25.2183,VALID,34,VALID,0,
2011-07-12, 01:21:04,VALID,1004.56,VALID,0,INVALID,163.662,VALID,0,VALID,25.2592,VALID,24,VALID,0,
2011-07-12, 01:22:04,VALID,1004.52,VALID,0,INVALID,163.655,VALID,0.100563,VALID,25.2592,VALID,36,VALID,0,
2011-07-12, 01:23:04,VALID,1004.47,VALID,0,INVALID,163.647,VALID,0,VALID,25.2786,VALID,32,VALID,0,
2011-07-12, 01:24:04,VALID,1004.46,VALID,0,INVALID,163.662,VALID,0.100563,VALID,25.3176,VALID,21,VALID,0,
2011-07-12, 01:25:04,VALID,1004.42,VALID,0,INVALID,163.655,VALID,0,VALID,25.3546,VALID,8,VALID,0,
2011-07-12, 01:26:04,VALID,1004.41,VALID,0,INVALID,163.678,VALID,0.100563,VALID,25.4149,VALID,11,VALID,0,
2011-07-12, 01:27:04,VALID,1004.4,VALID,0,INVALID,163.655,VALID,0.100563,VALID,25.4344,VALID,15,VALID,0,
2011-07-12, 01:28:04,VALID,1004.41,VALID,0,INVALID,163.685,VALID,0,VALID,25.4149,VALID,71,VALID,0,
2011-07-12, 01:29:04,VALID,1004.39,VALID,0,INVALID,163.647,VALID,0,VALID,25.4325,VALID,25,VALID,0,
2011-07-12, 01:30:04,VALID,1004.34,VALID,0,INVALID,163.647,VALID,0,VALID,25.4734,VALID,35,VALID,0,
2011-07-12, 01:31:04,VALID,1004.31,VALID,0,INVALID,163.67,VALID,0,VALID,25.6116,VALID,20,VALID,0,
2011-07-12, 01:32:04,VALID,1004.34,VALID,0,INVALID,163.639,VALID,0,VALID,25.6506,VALID,12,VALID,0,
2011-07-12, 01:33:04,VALID,1004.32,VALID,0,INVALID,163.655,VALID,0,VALID,25.709,VALID,9,VALID,0,
2011-07-12, 01:34:04,VALID,1004.3,VALID,0,INVALID,163.624,VALID,0,VALID,25.7694,VALID,19,VALID,0,
2011-07-12, 01:35:04,VALID,1004.29,VALID,0,INVALID,163.617,VALID,0,VALID,25.7499,VALID,35,VALID,0,
2011-07-12, 01:36:04,VALID,1004.29,VALID,0,INVALID,163.655,VALID,0,VALID,25.67,VALID,11,VALID,0,
2011-07-12, 01:37:04,VALID,1004.32,VALID,0,INVALID,163.632,VALID,0,VALID,25.67,VALID,24,VALID,0,
2011-07-12, 01:38:04,VALID,1004.34,VALID,0,INVALID,163.632,VALID,0,VALID,25.6895,VALID,23,VALID,0,
2011-07-12, 01:39:04,VALID,1004.29,VALID,0,INVALID,163.647,VALID,0,VALID,25.8453,VALID,17,VALID,0,
2011-07-12, 01:40:04,VALID,1004.29,VALID,0,INVALID,163.647,VALID,0,VALID,25.9038,VALID,1,VALID,0,
2011-07-12, 01:41:04,VALID,1004.26,VALID,0,INVALID,163.632,VALID,0,VALID,25.9622,VALID,24,VALID,0,
2011-07-12, 01:42:04,VALID,1004.28,VALID,0,INVALID,163.624,VALID,0,VALID,25.9817,VALID,15,VALID,0,
2011-07-12, 01:43:04,VALID,1004.27,VALID,0,INVALID,163.601,VALID,0,VALID,25.9622,VALID,45,VALID,0,
2011-07-12, 01:44:04,VALID,1004.23,VALID,0,INVALID,163.601,VALID,0,VALID,25.9427,VALID,356,VALID,0,
2011-07-12, 01:45:04,VALID,1004.24,VALID,0,INVALID,163.632,VALID,0.100563,VALID,25.9232,VALID,37,VALID,0,
2011-07-12, 01:46:04,VALID,1004.23,VALID,0,INVALID,163.624,VALID,0,VALID,25.8823,VALID,27,VALID,0,
2011-07-12, 01:47:04,VALID,1004.18,VALID,0,INVALID,163.609,VALID,0,VALID,25.8804,VALID,25,VALID,0,
2011-07-12, 01:48:04,VALID,1004.19,VALID,0,INVALID,163.609,VALID,0.100563,VALID,25.9018,VALID,11,VALID,0,
2011-07-12, 01:49:04,VALID,1004.17,VALID,0,INVALID,163.632,VALID,0.100563,VALID,25.9018,VALID,83,VALID,0,
2011-07-12, 01:50:04,VALID,1004.14,VALID,0,INVALID,163.617,VALID,0,VALID,25.9213,VALID,84,VALID,0,
2011-07-12, 01:51:04,VALID,1004.14,VALID,0,INVALID,163.624,VALID,0,VALID,25.9408,VALID,83,VALID,0,
2011-07-12, 01:52:04,VALID,1004.14,VALID,0,INVALID,163.609,VALID,0,VALID,25.9602,VALID,40,VALID,0,
2011-07-12, 01:53:04,VALID,1004.13,VALID,0,INVALID,163.586,VALID,0,VALID,25.9583,VALID,41,VALID,0,
2011-07-12, 01:54:04,VALID,1004.11,VALID,0,INVALID,163.601,VALID,0,VALID,25.9408,VALID,103,VALID,0,
2011-07-12, 01:55:04,VALID,1004.1,VALID,0,INVALID,163.647,VALID,0.100563,VALID,25.9408,VALID,36,VALID,0,
2011-07-12, 01:56:04,VALID,1004.12,VALID,0,INVALID,163.609,VALID,0.100563,VALID,25.9232,VALID,46,VALID,0,
2011-07-12, 01:57:04,VALID,1004.11,VALID,0,INVALID,163.639,VALID,0,VALID,25.8823,VALID,45,VALID,0,
2011-07-12, 01:58:04,VALID,1004.09,VALID,0,INVALID,163.578,VALID,0,VALID,25.8629,VALID,45,VALID,0,
2011-07-12, 01:59:04,VALID,1004.09,VALID,0,INVALID,163.632,VALID,0,VALID,25.8239,VALID,46,VALID,0,
2011-07-12, 02:00:04,VALID,1004.13,VALID,0,INVALID,163.609,VALID,0,VALID,25.785,VALID,46,VALID,0,
2011-07-12, 02:01:04,VALID,1004.09,VALID,0,INVALID,163.647,VALID,0,VALID,25.746,VALID,46,VALID,0,
2011-07-12, 02:02:04,VALID,1004.11,VALID,0,INVALID,163.617,VALID,0,VALID,25.7071,VALID,83,VALID,0,
2011-07-12, 02:03:04,VALID,1004.07,VALID,0,INVALID,163.624,VALID,0,VALID,25.7285,VALID,83,VALID,0,
2011-07-12, 02:04:04,VALID,1004.08,VALID,0,INVALID,163.617,VALID,0,VALID,25.7071,VALID,51,VALID,0,
2011-07-12, 02:05:04,VALID,1004.04,VALID,0,INVALID,163.617,VALID,0,VALID,25.6681,VALID,24,VALID,0,
2011-07-12, 02:06:04,VALID,1004.01,VALID,0,INVALID,163.639,VALID,0.100563,VALID,25.6681,VALID,52,VALID,0,
2011-07-12, 02:07:04,VALID,1003.98,VALID,0,INVALID,163.647,VALID,0,VALID,25.6876,VALID,21,VALID,0,
2011-07-12, 02:08:04,VALID,1003.96,VALID,0,INVALID,163.662,VALID,0,VALID,25.709,VALID,39,VALID,0,
2011-07-12, 02:09:04,VALID,1003.98,VALID,0,INVALID,163.655,VALID,0,VALID,25.6681,VALID,31,VALID,0,
2011-07-12, 02:10:04,VALID,1003.95,VALID,0,INVALID,163.639,VALID,0,VALID,25.6486,VALID,31,VALID,0,
2011-07-12, 02:11:04,VALID,1003.94,VALID,0,INVALID,163.655,VALID,0,VALID,25.6097,VALID,7,VALID,0,
2011-07-12, 02:12:04,VALID,1003.95,VALID,0,INVALID,163.647,VALID,0,VALID,25.6292,VALID,20,VALID,0,
2011-07-12, 02:13:04,VALID,1003.96,VALID,0,INVALID,163.655,VALID,0,VALID,25.6506,VALID,59,VALID,0,
2011-07-12, 02:14:04,VALID,1003.94,VALID,0,INVALID,163.609,VALID,0,VALID,25.6292,VALID,5,VALID,0,
2011-07-12, 02:15:04,VALID,1003.96,VALID,0,INVALID,163.632,VALID,0,VALID,25.6895,VALID,6,VALID,0,
2011-07-12, 02:16:04,VALID,1003.97,VALID,0,INVALID,163.647,VALID,0,VALID,25.6486,VALID,5,VALID,0,
2011-07-12, 02:17:04,VALID,1003.96,VALID,0,INVALID,163.632,VALID,0,VALID,25.6506,VALID,22,VALID,0,
2011-07-12, 02:18:04,VALID,1003.99,VALID,0,INVALID,163.662,VALID,0,VALID,25.6292,VALID,22,VALID,0,
2011-07-12, 02:19:04,VALID,1003.98,VALID,0,INVALID,163.655,VALID,0,VALID,25.6486,VALID,57,VALID,0,
2011-07-12, 02:20:04,VALID,1003.96,VALID,0,INVALID,163.647,VALID,0,VALID,25.6486,VALID,28,VALID,0,
2011-07-12, 02:21:04,VALID,1003.91,VALID,0,INVALID,163.662,VALID,0,VALID,25.6895,VALID,15,VALID,0,
2011-07-12, 02:22:04,VALID,1003.94,VALID,0,INVALID,163.632,VALID,0,VALID,25.6681,VALID,90,VALID,0,
2011-07-12, 02:23:04,VALID,1003.96,VALID,0,INVALID,163.632,VALID,0,VALID,25.7071,VALID,57,VALID,0,
2011-07-12, 02:24:04,VALID,1003.95,VALID,0,INVALID,163.647,VALID,0,VALID,25.7071,VALID,53,VALID,0,
2011-07-12, 02:25:04,VALID,1003.94,VALID,0,INVALID,163.639,VALID,0,VALID,25.6895,VALID,4,VALID,0,
2011-07-12, 02:26:04,VALID,1003.95,VALID,0,INVALID,163.655,VALID,0,VALID,25.6876,VALID,6,VALID,0,
2011-07-12, 02:27:04,VALID,1003.94,VALID,0,INVALID,163.624,VALID,0,VALID,25.7285,VALID,16,VALID,0,
2011-07-12, 02:28:04,VALID,1003.97,VALID,0,INVALID,163.632,VALID,0,VALID,25.7265,VALID,46,VALID,0,
2011-07-12, 02:29:04,VALID,1003.98,VALID,0,INVALID,163.647,VALID,0,VALID,25.7071,VALID,81,VALID,0,
2011-07-12, 02:30:04,VALID,1004.01,VALID,0,INVALID,163.655,VALID,0,VALID,25.6876,VALID,32,VALID,0,
2011-07-12, 02:31:04,VALID,1004,VALID,0,INVALID,163.617,VALID,0,VALID,25.7071,VALID,34,VALID,0,
2011-07-12, 02:32:04,VALID,1004.02,VALID,0,INVALID,163.632,VALID,0,VALID,25.7265,VALID,47,VALID,0,
2011-07-12, 02:33:04,VALID,1004.02,VALID,0,INVALID,163.639,VALID,0,VALID,25.7265,VALID,65,VALID,0,
2011-07-12, 02:34:04,VALID,1004.02,VALID,0,INVALID,163.624,VALID,0,VALID,25.7265,VALID,45,VALID,0,
2011-07-12, 02:35:04,VALID,1004.01,VALID,0,INVALID,163.624,VALID,0,VALID,25.748,VALID,68,VALID,0,
2011-07-12, 02:36:04,VALID,1004.02,VALID,0,INVALID,163.647,VALID,0,VALID,25.7674,VALID,60,VALID,0,
2011-07-12, 02:37:04,VALID,1004.06,VALID,0,INVALID,163.647,VALID,0,VALID,25.7265,VALID,81,VALID,0,
2011-07-12, 02:38:04,VALID,1004.05,VALID,0,INVALID,163.632,VALID,0,VALID,25.7265,VALID,92,VALID,0,
2011-07-12, 02:39:04,VALID,1004.05,VALID,0,INVALID,163.655,VALID,0,VALID,25.748,VALID,83,VALID,0,
2011-07-12, 02:40:04,VALID,1004.04,VALID,0,INVALID,163.632,VALID,0,VALID,25.746,VALID,81,VALID,0,
2011-07-12, 02:41:04,VALID,1004.08,VALID,0,INVALID,163.647,VALID,0,VALID,25.7674,VALID,95,VALID,0,
2011-07-12, 02:42:04,VALID,1004.07,VALID,0,INVALID,163.639,VALID,0,VALID,25.7655,VALID,46,VALID,0,
2011-07-12, 02:43:04,VALID,1004.12,VALID,0,INVALID,163.647,VALID,0,VALID,25.7655,VALID,3,VALID,0,
2011-07-12, 02:44:04,VALID,1004.12,VALID,0,INVALID,163.624,VALID,0,VALID,25.7655,VALID,35,VALID,0,
2011-07-12, 02:45:04,VALID,1004.11,VALID,0,INVALID,163.639,VALID,0,VALID,25.746,VALID,71,VALID,0,
2011-07-12, 02:46:04,VALID,1004.08,VALID,0,INVALID,163.617,VALID,0,VALID,25.7674,VALID,71,VALID,0,
2011-07-12, 02:47:04,VALID,1004.1,VALID,0,INVALID,163.647,VALID,0,VALID,25.746,VALID,52,VALID,0,
2011-07-12, 02:48:04,VALID,1004.07,VALID,0,INVALID,163.639,VALID,0,VALID,25.7674,VALID,80,VALID,0,
2011-07-12, 02:49:04,VALID,1004.08,VALID,0,INVALID,163.632,VALID,0,VALID,25.746,VALID,48,VALID,0,
2011-07-12, 02:50:04,VALID,1004.08,VALID,0,INVALID,163.639,VALID,0,VALID,25.8064,VALID,31,VALID,0,
2011-07-12, 02:51:04,VALID,1004.05,VALID,0,INVALID,163.624,VALID,0,VALID,25.8064,VALID,46,VALID,0,
2011-07-12, 02:52:04,VALID,1004.05,VALID,0,INVALID,163.624,VALID,0,VALID,25.8083,VALID,84,VALID,0,
2011-07-12, 02:53:04,VALID,1004.05,VALID,0,INVALID,163.617,VALID,0,VALID,25.7869,VALID,83,VALID,0,
2011-07-12, 02:54:04,VALID,1004.05,VALID,0,INVALID,163.655,VALID,0,VALID,25.8064,VALID,102,VALID,0,
2011-07-12, 02:55:04,VALID,1004.05,VALID,0,INVALID,163.639,VALID,0,VALID,25.8259,VALID,85,VALID,0,
2011-07-12, 02:56:04,VALID,1004.04,VALID,0,INVALID,163.624,VALID,0,VALID,25.8453,VALID,60,VALID,0,
2011-07-12, 02:57:04,VALID,1004.04,VALID,0,INVALID,163.624,VALID,0,VALID,25.8453,VALID,59,VALID,0,
2011-07-12, 02:58:04,VALID,1004.01,VALID,0,INVALID,163.632,VALID,0,VALID,25.7655,VALID,27,VALID,0,
2011-07-12, 02:59:04,VALID,1004.01,VALID,0,INVALID,163.639,VALID,0,VALID,25.7655,VALID,8,VALID,0,
2011-07-12, 03:00:04,VALID,1004.01,VALID,0,INVALID,163.639,VALID,0,VALID,25.7869,VALID,46,VALID,0,
2011-07-12, 03:01:04,VALID,1003.99,VALID,0,INVALID,163.655,VALID,0,VALID,25.748,VALID,46,VALID,0,
2011-07-12, 03:02:04,VALID,1003.97,VALID,0,INVALID,163.639,VALID,0,VALID,25.6876,VALID,40,VALID,0,
2011-07-12, 03:03:04,VALID,1003.99,VALID,0,INVALID,163.632,VALID,0,VALID,25.6895,VALID,56,VALID,0,
2011-07-12, 03:04:04,VALID,1003.99,VALID,0,INVALID,163.647,VALID,0,VALID,25.6895,VALID,24,VALID,0,
2011-07-12, 03:05:04,VALID,1003.94,VALID,0,INVALID,163.639,VALID,0,VALID,25.6895,VALID,63,VALID,0,
2011-07-12, 03:06:04,VALID,1003.96,VALID,0,INVALID,163.639,VALID,0,VALID,25.748,VALID,31,VALID,0,
2011-07-12, 03:07:04,VALID,1003.94,VALID,0,INVALID,163.639,VALID,0,VALID,25.8044,VALID,93,VALID,0,
2011-07-12, 03:08:04,VALID,1003.93,VALID,0,INVALID,163.601,VALID,0,VALID,25.9038,VALID,65,VALID,0,
2011-07-12, 03:09:04,VALID,1003.94,VALID,0,INVALID,163.632,VALID,0,VALID,25.9232,VALID,80,VALID,0,
2011-07-12, 03:10:04,VALID,1003.94,VALID,0,INVALID,163.617,VALID,0,VALID,25.9038,VALID,53,VALID,0,
2011-07-12, 03:11:04,VALID,1003.96,VALID,0,INVALID,163.647,VALID,0,VALID,25.8843,VALID,99,VALID,0,
2011-07-12, 03:12:04,VALID,1003.94,VALID,0,INVALID,163.609,VALID,0,VALID,25.8843,VALID,33,VALID,0,
2011-07-12, 03:13:04,VALID,1003.94,VALID,0,INVALID,163.624,VALID,0,VALID,25.8843,VALID,61,VALID,0,
2011-07-12, 03:14:04,VALID,1003.91,VALID,0,INVALID,163.632,VALID,0,VALID,25.8843,VALID,36,VALID,0,
2011-07-12, 03:15:04,VALID,1003.89,VALID,0,INVALID,163.601,VALID,0,VALID,25.9018,VALID,103,VALID,0,
2011-07-12, 03:16:04,VALID,1003.89,VALID,0,INVALID,163.609,VALID,0,VALID,25.9817,VALID,82,VALID,0,
2011-07-12, 03:17:04,VALID,1003.86,VALID,0,INVALID,163.617,VALID,0,VALID,25.9817,VALID,72,VALID,0,
2011-07-12, 03:18:04,VALID,1003.86,VALID,0,INVALID,163.601,VALID,0,VALID,25.9602,VALID,62,VALID,0,
2011-07-12, 03:19:04,VALID,1003.86,VALID,0,INVALID,163.624,VALID,0,VALID,25.9602,VALID,96,VALID,0,
2011-07-12, 03:20:04,VALID,1003.85,VALID,0,INVALID,163.624,VALID,0,VALID,25.9622,VALID,56,VALID,0,
2011-07-12, 03:21:04,VALID,1003.86,VALID,0,INVALID,163.632,VALID,0,VALID,25.9427,VALID,102,VALID,0,
2011-07-12, 03:22:04,VALID,1003.88,VALID,0,INVALID,163.639,VALID,0,VALID,25.9213,VALID,55,VALID,0,
2011-07-12, 03:23:04,VALID,1003.92,VALID,0,INVALID,163.601,VALID,0,VALID,25.9018,VALID,79,VALID,0,
2011-07-12, 03:24:04,VALID,1003.96,VALID,0,INVALID,163.617,VALID,0,VALID,25.9427,VALID,83,VALID,0,
2011-07-12, 03:25:04,VALID,1004,VALID,0,INVALID,163.624,VALID,0,VALID,25.9038,VALID,83,VALID,0,
2011-07-12, 03:26:04,VALID,1004.04,VALID,0,INVALID,163.639,VALID,0,VALID,25.8843,VALID,69,VALID,0,
2011-07-12, 03:27:04,VALID,1004.08,VALID,0,INVALID,163.617,VALID,0,VALID,25.9038,VALID,96,VALID,0,
2011-07-12, 03:28:04,VALID,1004.1,VALID,0,INVALID,163.624,VALID,0,VALID,25.9232,VALID,98,VALID,0,
2011-07-12, 03:29:04,VALID,1004.15,VALID,0,INVALID,163.662,VALID,0,VALID,25.9018,VALID,108,VALID,0,
2011-07-12, 03:30:04,VALID,1004.2,VALID,0,INVALID,163.624,VALID,0,VALID,25.9427,VALID,113,VALID,0,
2011-07-12, 03:31:04,VALID,1004.21,VALID,0,INVALID,163.632,VALID,0,VALID,25.9817,VALID,100,VALID,0,
2011-07-12, 03:32:04,VALID,1004.24,VALID,0,INVALID,163.609,VALID,0,VALID,26.0206,VALID,115,VALID,0,
2011-07-12, 03:33:04,VALID,1004.24,VALID,0,INVALID,163.624,VALID,0,VALID,26.0791,VALID,107,VALID,0,
2011-07-12, 03:34:04,VALID,1004.26,VALID,0,INVALID,163.609,VALID,0,VALID,26.0791,VALID,70,VALID,0,
2011-07-12, 03:35:04,VALID,1004.22,VALID,0,INVALID,163.639,VALID,0,VALID,26.0401,VALID,81,VALID,0,
2011-07-12, 03:36:04,VALID,1004.24,VALID,0,INVALID,163.609,VALID,0,VALID,26.0206,VALID,36,VALID,0,
2011-07-12, 03:37:04,VALID,1004.24,VALID,0,INVALID,163.586,VALID,0,VALID,26.0206,VALID,75,VALID,0,
2011-07-12, 03:38:04,VALID,1004.22,VALID,0,INVALID,163.609,VALID,0,VALID,26.0012,VALID,48,VALID,0,
2011-07-12, 03:39:04,VALID,1004.21,VALID,0,INVALID,163.624,VALID,0,VALID,25.9622,VALID,46,VALID,0,
2011-07-12, 03:40:04,VALID,1004.21,VALID,0,INVALID,163.609,VALID,0,VALID,25.9836,VALID,80,VALID,0,
2011-07-12, 03:41:04,VALID,1004.2,VALID,0,INVALID,163.601,VALID,0,VALID,25.9213,VALID,30,VALID,0,
2011-07-12, 03:42:04,VALID,1004.2,VALID,0,INVALID,163.609,VALID,0,VALID,25.9038,VALID,54,VALID,0,
2011-07-12, 03:43:04,VALID,1004.21,VALID,0,INVALID,163.639,VALID,0,VALID,25.8648,VALID,12,VALID,0,
2011-07-12, 03:44:04,VALID,1004.21,VALID,0,INVALID,163.624,VALID,0,VALID,25.8259,VALID,30,VALID,0,
2011-07-12, 03:45:04,VALID,1004.2,VALID,0,INVALID,163.639,VALID,0,VALID,25.7674,VALID,359,VALID,0,
2011-07-12, 03:46:04,VALID,1004.19,VALID,0,INVALID,163.617,VALID,0,VALID,25.7674,VALID,7,VALID,0,
2011-07-12, 03:47:04,VALID,1004.15,VALID,0,INVALID,163.632,VALID,0,VALID,25.7071,VALID,28,VALID,0,
2011-07-12, 03:48:04,VALID,1004.17,VALID,0,INVALID,163.632,VALID,0,VALID,25.6895,VALID,46,VALID,0,
2011-07-12, 03:49:04,VALID,1004.15,VALID,0,INVALID,163.647,VALID,0,VALID,25.67,VALID,14,VALID,0,
2011-07-12, 03:50:04,VALID,1004.14,VALID,0,INVALID,163.647,VALID,0,VALID,25.6506,VALID,40,VALID,0,
2011-07-12, 03:51:04,VALID,1004.13,VALID,0,INVALID,163.647,VALID,0,VALID,25.709,VALID,52,VALID,0,
2011-07-12, 03:52:04,VALID,1004.15,VALID,0,INVALID,163.655,VALID,0,VALID,25.7869,VALID,42,VALID,0,
2011-07-12, 03:53:04,VALID,1004.14,VALID,0,INVALID,163.632,VALID,0,VALID,25.8259,VALID,40,VALID,0,
2011-07-12, 03:54:04,VALID,1004.15,VALID,0,INVALID,163.609,VALID,0,VALID,25.8648,VALID,57,VALID,0,
2011-07-12, 03:55:04,VALID,1004.16,VALID,0,INVALID,163.594,VALID,0,VALID,25.9038,VALID,70,VALID,0,